Location: Waning Moon II Observatory
(30.3730°N, 89.7620°W)
Time: 01:32:30
(UTC-05:00)

Meteor 1-21 - Visible Passes

Search period start: 02 August 2014 00:00
Search period end: 12 August 2014 00:00
Orbit: 844 x 889 km, 81.2° (Epoch: 01 August)

Date Brightness Start Highest point End Pass type
(mag) Time Alt. Az. Time Alt. Az. Time Alt. Az.
02 Aug 6.3 00:36:07 10° N 00:38:12 23° N 00:38:12 23° N visible
03 Aug 6.3 00:28:56 10° N 00:31:00 23° N 00:31:00 23° N visible
04 Aug 6.3 00:21:45 10° N 00:23:48 23° N 00:23:48 23° N visible
05 Aug 6.3 00:14:33 10° N 00:16:38 23° N 00:16:38 23° N visible
06 Aug 6.3 00:07:22 10° N 00:09:28 23° N 00:09:28 23° N visible
07 Aug 6.3 00:00:11 10° N 00:02:19 24° N 00:02:19 24° N visible
07 Aug 6.2 23:52:59 10° N 23:55:11 24° N 23:55:11 24° N visible
08 Aug 6.2 23:45:48 10° N 23:48:03 25° N 23:48:03 25° N visible
09 Aug 6.1 23:38:37 10° N 23:40:56 25° N 23:40:56 25° N visible
10 Aug 6.1 23:31:26 10° N 23:33:51 26° N 23:33:51 26° N visible
11 Aug 6.0 23:24:14 10° N 23:26:46 27° N 23:26:46 27° N visible
